,,,PA_Meas_PMT16A,,PR_Meas_QMR101_102,,RH_Meas_QMH101,,SR_Meas_QMS101,,TA_Meas_QMH101,,GenWind,,GenWind,
date,time,status,PA,status,PR,status,RH,status,SR,status,TA,status,DirAvg,status,SpdAvg,
2010-07-17, 00:00:04,VALID,1009,VALID,0,VALID,101.484,VALID,0,VALID,23.1485,VALID,2,VALID,0.04375,
2010-07-17, 00:01:04,VALID,1008.99,VALID,0,VALID,101.476,VALID,0,VALID,23.1485,VALID,2,VALID,0,
2010-07-17, 00:02:04,VALID,1008.96,VALID,0,VALID,101.484,VALID,0,VALID,23.1485,VALID,2,VALID,0,
2010-07-17, 00:03:04,VALID,1008.95,VALID,0,VALID,101.476,VALID,0,VALID,23.1679,VALID,2,VALID,0,
2010-07-17, 00:04:04,VALID,1008.93,VALID,0,VALID,101.43,VALID,0,VALID,23.1662,VALID,2,VALID,0.103516,
2010-07-17, 00:05:04,VALID,1008.95,VALID,0,VALID,101.484,VALID,0,VALID,23.1485,VALID,2,VALID,0,
2010-07-17, 00:06:04,VALID,1008.94,VALID,0,VALID,101.491,VALID,0,VALID,23.129,VALID,2,VALID,0,
2010-07-17, 00:07:04,VALID,1008.93,VALID,0,VALID,101.491,VALID,0,VALID,23.0883,VALID,2,VALID,0,
2010-07-17, 00:08:04,VALID,1008.95,VALID,0,VALID,101.461,VALID,0,VALID,23.129,VALID,2,VALID,0,
2010-07-17, 00:09:04,VALID,1008.93,VALID,0,VALID,101.491,VALID,0,VALID,23.1095,VALID,2,VALID,0,
2010-07-17, 00:10:04,VALID,1008.93,VALID,0,VALID,101.476,VALID,0,VALID,23.129,VALID,2,VALID,0.375781,
2010-07-17, 00:11:04,VALID,1008.92,VALID,0,VALID,101.461,VALID,0,VALID,23.129,VALID,2,VALID,0.387891,
2010-07-17, 00:12:04,VALID,1008.89,VALID,0,VALID,101.445,VALID,0,VALID,23.129,VALID,2,VALID,0.463281,
2010-07-17, 00:13:04,VALID,1008.88,VALID,0,VALID,101.491,VALID,0.105969,VALID,23.1095,VALID,2,VALID,0.355469,
2010-07-17, 00:14:04,VALID,1008.86,VALID,0,VALID,101.461,VALID,0,VALID,23.1095,VALID,2,VALID,0.34375,
2010-07-17, 00:15:04,VALID,1008.85,VALID,0,VALID,101.445,VALID,0,VALID,23.1095,VALID,2,VALID,0.140625,
2010-07-17, 00:16:04,VALID,1008.84,VALID,0,VALID,101.438,VALID,0,VALID,23.129,VALID,2,VALID,0.220313,
2010-07-17, 00:17:04,VALID,1008.85,VALID,0,VALID,101.453,VALID,0,VALID,23.1095,VALID,2,VALID,0.366016,
2010-07-17, 00:18:04,VALID,1008.86,VALID,0,VALID,101.453,VALID,0,VALID,23.129,VALID,2,VALID,0.332812,
2010-07-17, 00:19:04,VALID,1008.86,VALID,0,VALID,101.461,VALID,0,VALID,23.1095,VALID,38,VALID,0.587109,
2010-07-17, 00:20:04,VALID,1008.85,VALID,0,VALID,101.445,VALID,0,VALID,23.09,VALID,64,VALID,0.642969,
2010-07-17, 00:21:04,VALID,1008.88,VALID,0,VALID,101.476,VALID,0,VALID,23.09,VALID,64,VALID,0.7,
2010-07-17, 00:22:04,VALID,1008.9,VALID,0,VALID,101.423,VALID,0,VALID,23.1485,VALID,90,VALID,0.644531,
2010-07-17, 00:23:04,VALID,1008.85,VALID,0,VALID,101.445,VALID,0,VALID,23.1095,VALID,81,VALID,0.65625,
2010-07-17, 00:24:04,VALID,1008.82,VALID,0,VALID,101.445,VALID,0,VALID,23.129,VALID,79,VALID,0.295703,
2010-07-17, 00:25:04,VALID,1008.8,VALID,0,VALID,101.445,VALID,0,VALID,23.129,VALID,57,VALID,0.352344,
2010-07-17, 00:26:04,VALID,1008.75,VALID,0,VALID,101.438,VALID,0,VALID,23.129,VALID,57,VALID,0,
2010-07-17, 00:27:04,VALID,1008.72,VALID,0.5,VALID,101.423,VALID,0,VALID,23.1502,VALID,57,VALID,0,
2010-07-17, 00:28:04,VALID,1008.66,VALID,0,VALID,101.438,VALID,0,VALID,23.129,VALID,57,VALID,0,
2010-07-17, 00:29:04,VALID,1008.65,VALID,0,VALID,101.415,VALID,0,VALID,23.1485,VALID,57,VALID,0,
2010-07-17, 00:30:04,VALID,1008.64,VALID,0,VALID,101.4,VALID,0,VALID,23.1679,VALID,57,VALID,0,
2010-07-17, 00:31:04,VALID,1008.62,VALID,0,VALID,101.384,VALID,0,VALID,23.2087,VALID,57,VALID,0,
2010-07-17, 00:32:04,VALID,1008.59,VALID,0,VALID,101.4,VALID,0,VALID,23.2087,VALID,57,VALID,0,
2010-07-17, 00:33:04,VALID,1008.57,VALID,0,VALID,101.392,VALID,0,VALID,23.1874,VALID,57,VALID,0,
2010-07-17, 00:34:04,VALID,1008.57,VALID,0,VALID,101.384,VALID,0,VALID,23.2069,VALID,57,VALID,0,
2010-07-17, 00:35:04,VALID,1008.56,VALID,0,VALID,101.415,VALID,0,VALID,23.2069,VALID,57,VALID,0,
2010-07-17, 00:36:04,VALID,1008.55,VALID,0,VALID,101.415,VALID,0,VALID,23.2087,VALID,57,VALID,0,
2010-07-17, 00:37:04,VALID,1008.54,VALID,0,VALID,101.377,VALID,0,VALID,23.1874,VALID,57,VALID,0,
2010-07-17, 00:38:04,VALID,1008.56,VALID,0,VALID,101.392,VALID,0,VALID,23.2069,VALID,57,VALID,0,
2010-07-17, 00:39:04,VALID,1008.54,VALID,0,VALID,101.423,VALID,0,VALID,23.2087,VALID,57,VALID,0,
2010-07-17, 00:40:04,VALID,1008.55,VALID,0,VALID,101.4,VALID,0,VALID,23.2087,VALID,57,VALID,0.0933594,
2010-07-17, 00:41:04,VALID,1008.53,VALID,0,VALID,101.43,VALID,0,VALID,23.1485,VALID,57,VALID,0.327344,
2010-07-17, 00:42:04,VALID,1008.5,VALID,0,VALID,101.445,VALID,0,VALID,23.1697,VALID,42,VALID,0.400391,
2010-07-17, 00:43:04,VALID,1008.5,VALID,0,VALID,101.461,VALID,0,VALID,23.1095,VALID,37,VALID,0.228516,
2010-07-17, 00:44:04,VALID,1008.49,VALID,0,VALID,101.445,VALID,0,VALID,23.1307,VALID,37,VALID,0.0691406,
2010-07-17, 00:45:04,VALID,1008.51,VALID,0,VALID,101.407,VALID,0,VALID,23.129,VALID,37,VALID,0.0613281,
2010-07-17, 00:46:04,VALID,1008.5,VALID,0,VALID,101.423,VALID,0,VALID,23.129,VALID,37,VALID,0.219922,
2010-07-17, 00:47:04,VALID,1008.55,VALID,0,VALID,101.392,VALID,0,VALID,23.1485,VALID,37,VALID,0,
2010-07-17, 00:48:04,VALID,1008.57,VALID,0,VALID,101.415,VALID,0,VALID,23.1485,VALID,37,VALID,0,
2010-07-17, 00:49:04,VALID,1008.59,VALID,0,VALID,101.4,VALID,0,VALID,23.1502,VALID,37,VALID,0,
2010-07-17, 00:50:04,VALID,1008.61,VALID,0,VALID,101.407,VALID,0,VALID,23.1502,VALID,37,VALID,0,
2010-07-17, 00:51:04,VALID,1008.59,VALID,0,VALID,101.407,VALID,0,VALID,23.1697,VALID,37,VALID,0,
2010-07-17, 00:52:04,VALID,1008.63,VALID,0,VALID,101.384,VALID,0,VALID,23.1697,VALID,37,VALID,0,
2010-07-17, 00:53:04,VALID,1008.66,VALID,0,VALID,101.392,VALID,0,VALID,23.1892,VALID,35,VALID,0.0945313,
2010-07-17, 00:54:04,VALID,1008.68,VALID,0,VALID,101.362,VALID,0,VALID,23.1892,VALID,14,VALID,0.269141,
2010-07-17, 00:55:04,VALID,1008.74,VALID,0,VALID,101.384,VALID,0,VALID,23.1679,VALID,14,VALID,0.294141,
2010-07-17, 00:56:04,VALID,1008.74,VALID,0,VALID,101.377,VALID,0,VALID,23.1679,VALID,14,VALID,0,
2010-07-17, 00:57:04,VALID,1008.76,VALID,0,VALID,101.384,VALID,0,VALID,23.2087,VALID,14,VALID,0,
2010-07-17, 00:58:04,VALID,1008.74,VALID,0,VALID,101.346,VALID,0,VALID,23.1874,VALID,14,VALID,0,
2010-07-17, 00:59:04,VALID,1008.77,VALID,0,VALID,101.377,VALID,0,VALID,23.2087,VALID,14,VALID,0,
2010-07-17, 01:00:04,VALID,1008.81,VALID,0,VALID,101.384,VALID,0,VALID,23.2087,VALID,14,VALID,0,
2010-07-17, 01:01:04,VALID,1008.84,VALID,0,VALID,101.377,VALID,0,VALID,23.1874,VALID,15,VALID,0.209766,
2010-07-17, 01:02:04,VALID,1008.88,VALID,0,VALID,101.4,VALID,0,VALID,23.1679,VALID,56,VALID,0.572266,
2010-07-17, 01:03:04,VALID,1008.92,VALID,0,VALID,101.407,VALID,0,VALID,23.1874,VALID,84,VALID,0.357422,
2010-07-17, 01:04:04,VALID,1008.95,VALID,0,VALID,101.377,VALID,0,VALID,23.1874,VALID,101,VALID,0.739453,
2010-07-17, 01:05:04,VALID,1008.96,VALID,0,VALID,101.362,VALID,0,VALID,23.1679,VALID,106,VALID,0.391797,
2010-07-17, 01:06:04,VALID,1008.98,VALID,0,VALID,101.4,VALID,0,VALID,23.1697,VALID,45,VALID,0.956641,
2010-07-17, 01:07:04,VALID,1008.94,VALID,0,VALID,101.415,VALID,0,VALID,23.129,VALID,36,VALID,0.792969,
2010-07-17, 01:08:04,VALID,1008.97,VALID,0,VALID,101.392,VALID,0,VALID,23.129,VALID,29,VALID,0.716797,
2010-07-17, 01:09:04,VALID,1008.98,VALID,0,VALID,101.43,VALID,0,VALID,23.129,VALID,50,VALID,0.386328,
2010-07-17, 01:10:04,VALID,1008.98,VALID,0,VALID,101.369,VALID,0,VALID,23.1485,VALID,44,VALID,0.161328,
2010-07-17, 01:11:04,VALID,1009.01,VALID,0,VALID,101.392,VALID,0,VALID,23.129,VALID,276,VALID,0.295312,
2010-07-17, 01:12:04,VALID,1009,VALID,0,VALID,101.346,VALID,0,VALID,23.1485,VALID,276,VALID,0.000390625,
2010-07-17, 01:13:04,VALID,1008.99,VALID,0,VALID,101.331,VALID,0,VALID,23.1874,VALID,276,VALID,0.0824219,
2010-07-17, 01:14:04,VALID,1009,VALID,0,VALID,101.339,VALID,0,VALID,23.2069,VALID,276,VALID,0,
2010-07-17, 01:15:04,VALID,1009,VALID,0,VALID,101.331,VALID,0,VALID,23.2069,VALID,276,VALID,0.0660156,
2010-07-17, 01:16:04,VALID,1008.99,VALID,0,VALID,101.346,VALID,0,VALID,23.2069,VALID,276,VALID,0,
2010-07-17, 01:17:04,VALID,1009.02,VALID,0,VALID,101.346,VALID,0,VALID,23.2264,VALID,244,VALID,0.346484,
2010-07-17, 01:18:04,VALID,1009.03,VALID,0,VALID,101.369,VALID,0,VALID,23.1874,VALID,223,VALID,0.0421875,
2010-07-17, 01:19:04,VALID,1009.06,VALID,0,VALID,101.346,VALID,0,VALID,23.2282,VALID,223,VALID,0,
2010-07-17, 01:20:04,VALID,1009.07,VALID,0,VALID,101.354,VALID,0,VALID,23.1874,VALID,344,VALID,0.475,
2010-07-17, 01:21:04,VALID,1009.05,VALID,0,VALID,101.369,VALID,0,VALID,23.1679,VALID,44,VALID,0.385938,
2010-07-17, 01:22:04,VALID,1009.05,VALID,0,VALID,101.4,VALID,0,VALID,23.1679,VALID,17,VALID,0.362891,
2010-07-17, 01:23:04,VALID,1009.08,VALID,0,VALID,101.392,VALID,0,VALID,23.1485,VALID,36,VALID,0.366406,
2010-07-17, 01:24:04,VALID,1009.06,VALID,0,VALID,101.362,VALID,0,VALID,23.1485,VALID,36,VALID,0.05625,
2010-07-17, 01:25:04,VALID,1009.07,VALID,0,VALID,101.323,VALID,0,VALID,23.2087,VALID,36,VALID,0,
2010-07-17, 01:26:04,VALID,1009.01,VALID,0,VALID,101.308,VALID,0,VALID,23.2264,VALID,7,VALID,0.04375,
2010-07-17, 01:27:04,VALID,1008.97,VALID,0,VALID,101.346,VALID,0,VALID,23.2264,VALID,309,VALID,0.726172,
2010-07-17, 01:28:04,VALID,1008.94,VALID,0,VALID,101.354,VALID,0,VALID,23.2069,VALID,318,VALID,0.473437,
2010-07-17, 01:29:04,VALID,1008.95,VALID,0,VALID,101.354,VALID,0,VALID,23.2087,VALID,285,VALID,0.741016,
2010-07-17, 01:30:04,VALID,1008.94,VALID,0,VALID,101.362,VALID,0,VALID,23.1874,VALID,325,VALID,0.588281,
2010-07-17, 01:31:04,VALID,1008.9,VALID,0,VALID,101.339,VALID,0,VALID,23.1874,VALID,292,VALID,0.482422,
2010-07-17, 01:32:04,VALID,1008.86,VALID,0,VALID,101.346,VALID,0,VALID,23.2282,VALID,20,VALID,0.451953,
2010-07-17, 01:33:04,VALID,1008.82,VALID,0,VALID,101.316,VALID,0,VALID,23.2069,VALID,37,VALID,0,
2010-07-17, 01:34:04,VALID,1008.75,VALID,0,VALID,101.293,VALID,0,VALID,23.2459,VALID,28,VALID,0.192969,
2010-07-17, 01:35:04,VALID,1008.7,VALID,0,VALID,101.316,VALID,0,VALID,23.2264,VALID,315,VALID,0.16875,
2010-07-17, 01:36:04,VALID,1008.63,VALID,0,VALID,101.339,VALID,0,VALID,23.2264,VALID,294,VALID,0.227344,
2010-07-17, 01:37:04,VALID,1008.58,VALID,0,VALID,101.377,VALID,0,VALID,23.2069,VALID,302,VALID,0.9375,
2010-07-17, 01:38:04,VALID,1008.54,VALID,0,VALID,101.362,VALID,0,VALID,23.2069,VALID,314,VALID,0.637891,
2010-07-17, 01:39:04,VALID,1008.52,VALID,0,VALID,101.339,VALID,0,VALID,23.1874,VALID,304,VALID,0.675391,
2010-07-17, 01:40:04,VALID,1008.51,VALID,0,VALID,101.346,VALID,0,VALID,23.2087,VALID,304,VALID,0.50625,
2010-07-17, 01:41:04,VALID,1008.47,VALID,0,VALID,101.339,VALID,0,VALID,23.1874,VALID,305,VALID,0.124219,
2010-07-17, 01:42:04,VALID,1008.48,VALID,0,VALID,101.346,VALID,0,VALID,23.1874,VALID,360,VALID,0.205859,
2010-07-17, 01:43:04,VALID,1008.48,VALID,0,VALID,101.331,VALID,0,VALID,23.1874,VALID,3,VALID,0.0824219,
2010-07-17, 01:44:04,VALID,1008.5,VALID,0,VALID,101.323,VALID,0,VALID,23.1874,VALID,266,VALID,0.275781,
2010-07-17, 01:45:04,VALID,1008.49,VALID,0,VALID,101.316,VALID,0,VALID,23.2069,VALID,266,VALID,0.145313,
2010-07-17, 01:46:04,VALID,1008.48,VALID,0,VALID,101.339,VALID,0,VALID,23.1874,VALID,266,VALID,0.00859375,
2010-07-17, 01:47:04,VALID,1008.47,VALID,0,VALID,101.308,VALID,0,VALID,23.2069,VALID,266,VALID,0.210938,
2010-07-17, 01:48:04,VALID,1008.45,VALID,0,VALID,101.331,VALID,0,VALID,23.1874,VALID,221,VALID,0.305469,
2010-07-17, 01:49:04,VALID,1008.42,VALID,0,VALID,101.339,VALID,0,VALID,23.1874,VALID,314,VALID,0.274609,
2010-07-17, 01:50:04,VALID,1008.45,VALID,0,VALID,101.362,VALID,0,VALID,23.1485,VALID,330,VALID,0.0996094,
2010-07-17, 01:51:04,VALID,1008.44,VALID,0,VALID,101.339,VALID,0,VALID,23.1272,VALID,330,VALID,0,
2010-07-17, 01:52:04,VALID,1008.43,VALID,0,VALID,101.362,VALID,0,VALID,23.1485,VALID,359,VALID,0.120703,
2010-07-17, 01:53:04,VALID,1008.44,VALID,0,VALID,101.354,VALID,0,VALID,23.1467,VALID,341,VALID,0.14375,
2010-07-17, 01:54:04,VALID,1008.41,VALID,0,VALID,101.331,VALID,0,VALID,23.1485,VALID,339,VALID,0.71875,
2010-07-17, 01:55:04,VALID,1008.39,VALID,0,VALID,101.331,VALID,0,VALID,23.129,VALID,315,VALID,0.613672,
2010-07-17, 01:56:04,VALID,1008.39,VALID,0,VALID,101.308,VALID,0,VALID,23.1892,VALID,315,VALID,0.122656,
2010-07-17, 01:57:04,VALID,1008.36,VALID,0,VALID,101.316,VALID,0,VALID,23.1485,VALID,297,VALID,0.630859,
2010-07-17, 01:58:04,VALID,1008.35,VALID,0,VALID,101.308,VALID,0,VALID,23.1485,VALID,301,VALID,0.205078,
2010-07-17, 01:59:04,VALID,1008.35,VALID,0,VALID,101.301,VALID,0,VALID,23.1679,VALID,279,VALID,0.440625,
2010-07-17, 02:00:04,VALID,1008.36,VALID,0,VALID,101.308,VALID,0,VALID,23.1679,VALID,286,VALID,0.0417969,
2010-07-17, 02:01:04,VALID,1008.36,VALID,0,VALID,101.331,VALID,0,VALID,23.1697,VALID,259,VALID,0,
2010-07-17, 02:02:04,VALID,1008.36,VALID,0,VALID,101.323,VALID,0,VALID,23.1485,VALID,271,VALID,0.338281,
2010-07-17, 02:03:04,VALID,1008.35,VALID,0,VALID,101.316,VALID,0,VALID,23.1679,VALID,271,VALID,0,
2010-07-17, 02:04:04,VALID,1008.38,VALID,0,VALID,101.308,VALID,0,VALID,23.1679,VALID,230,VALID,0.498437,
2010-07-17, 02:05:04,VALID,1008.38,VALID,0,VALID,101.316,VALID,0,VALID,23.1679,VALID,230,VALID,0.157422,
2010-07-17, 02:06:04,VALID,1008.38,VALID,0,VALID,101.316,VALID,0,VALID,23.1485,VALID,281,VALID,0.614062,
2010-07-17, 02:07:04,VALID,1008.35,VALID,0,VALID,101.301,VALID,0,VALID,23.1679,VALID,269,VALID,0.369141,
2010-07-17, 02:08:04,VALID,1008.35,VALID,0,VALID,101.316,VALID,0,VALID,23.1485,VALID,295,VALID,0.525781,
2010-07-17, 02:09:04,VALID,1008.35,VALID,0,VALID,101.301,VALID,0,VALID,23.1679,VALID,290,VALID,0.441016,
2010-07-17, 02:10:04,VALID,1008.34,VALID,0,VALID,101.316,VALID,0,VALID,23.1679,VALID,314,VALID,0.430859,
2010-07-17, 02:11:04,VALID,1008.34,VALID,0,VALID,101.293,VALID,0,VALID,23.1679,VALID,312,VALID,0.0171875,
2010-07-17, 02:12:04,VALID,1008.34,VALID,0,VALID,101.308,VALID,0,VALID,23.1874,VALID,303,VALID,0.2125,
2010-07-17, 02:13:04,VALID,1008.33,VALID,0,VALID,101.278,VALID,0,VALID,23.1874,VALID,274,VALID,0.424609,
2010-07-17, 02:14:04,VALID,1008.35,VALID,0,VALID,101.285,VALID,0,VALID,23.2282,VALID,301,VALID,0.81875,
2010-07-17, 02:15:04,VALID,1008.35,VALID,0,VALID,101.308,VALID,0,VALID,23.1874,VALID,299,VALID,0.2625,
2010-07-17, 02:16:04,VALID,1008.36,VALID,0,VALID,101.308,VALID,0,VALID,23.1679,VALID,278,VALID,0.828906,
2010-07-17, 02:17:04,VALID,1008.36,VALID,0,VALID,101.293,VALID,0,VALID,23.1679,VALID,281,VALID,0.348828,
2010-07-17, 02:18:04,VALID,1008.34,VALID,0,VALID,101.293,VALID,0,VALID,23.1697,VALID,281,VALID,0,
2010-07-17, 02:19:04,VALID,1008.34,VALID,0,VALID,101.331,VALID,0.105969,VALID,23.1467,VALID,321,VALID,0.255859,
2010-07-17, 02:20:04,VALID,1008.29,VALID,0,VALID,101.285,VALID,0.105969,VALID,23.1874,VALID,318,VALID,0.182031,
2010-07-17, 02:21:04,VALID,1008.27,VALID,0,VALID,101.293,VALID,0.105969,VALID,23.1857,VALID,318,VALID,0,
2010-07-17, 02:22:04,VALID,1008.26,VALID,0,VALID,101.278,VALID,0.105969,VALID,23.1857,VALID,315,VALID,0.509766,
2010-07-17, 02:23:04,VALID,1008.26,VALID,0,VALID,101.285,VALID,0.105969,VALID,23.2051,VALID,316,VALID,0.828516,
2010-07-17, 02:24:04,VALID,1008.24,VALID,0,VALID,101.308,VALID,0.105969,VALID,23.1874,VALID,316,VALID,0.00195313,
2010-07-17, 02:25:04,VALID,1008.18,VALID,0,VALID,101.293,VALID,0.105969,VALID,23.1662,VALID,291,VALID,0.530469,
2010-07-17, 02:26:04,VALID,1008.19,VALID,0,VALID,101.285,VALID,0.105969,VALID,23.1662,VALID,258,VALID,0.657812,
2010-07-17, 02:27:04,VALID,1008.17,VALID,0,VALID,101.308,VALID,0.105969,VALID,23.1874,VALID,283,VALID,0.138281,
2010-07-17, 02:28:04,VALID,1008.15,VALID,0,VALID,101.301,VALID,0.105969,VALID,23.1467,VALID,278,VALID,0.676562,
2010-07-17, 02:29:04,VALID,1008.14,VALID,0,VALID,101.301,VALID,0.105969,VALID,23.1485,VALID,281,VALID,0.492188,
2010-07-17, 02:30:04,VALID,1008.14,VALID,0,VALID,101.278,VALID,0,VALID,23.1662,VALID,255,VALID,0.105469,
2010-07-17, 02:31:04,VALID,1008.13,VALID,0,VALID,101.262,VALID,0,VALID,23.1857,VALID,255,VALID,0.0703125,
2010-07-17, 02:32:04,VALID,1008.11,VALID,0,VALID,101.27,VALID,0.105969,VALID,23.2069,VALID,344,VALID,0.327734,
2010-07-17, 02:33:04,VALID,1008.1,VALID,0,VALID,101.285,VALID,0.105969,VALID,23.1662,VALID,344,VALID,0.0195313,
2010-07-17, 02:34:04,VALID,1008.09,VALID,0,VALID,101.285,VALID,0.105969,VALID,23.2069,VALID,344,VALID,0,
2010-07-17, 02:35:04,VALID,1008.12,VALID,0,VALID,101.262,VALID,0.105969,VALID,23.1857,VALID,344,VALID,0,
2010-07-17, 02:36:04,VALID,1008.11,VALID,0,VALID,101.293,VALID,0.105969,VALID,23.1662,VALID,344,VALID,0.115234,
2010-07-17, 02:37:04,VALID,1008.13,VALID,0,VALID,101.308,VALID,0.105969,VALID,23.1255,VALID,345,VALID,0.255078,
2010-07-17, 02:38:04,VALID,1008.14,VALID,0,VALID,101.301,VALID,0.105969,VALID,23.1467,VALID,345,VALID,0.00898437,
2010-07-17, 02:39:04,VALID,1008.17,VALID,0,VALID,101.301,VALID,0.105969,VALID,23.1679,VALID,345,VALID,0,
2010-07-17, 02:40:04,VALID,1008.15,VALID,0,VALID,101.293,VALID,0.105969,VALID,23.1662,VALID,345,VALID,0,
2010-07-17, 02:41:04,VALID,1008.13,VALID,0,VALID,101.262,VALID,0.211938,VALID,23.1662,VALID,345,VALID,0,
2010-07-17, 02:42:04,VALID,1008.14,VALID,0,VALID,101.285,VALID,0.105969,VALID,23.1467,VALID,327,VALID,0.142969,
2010-07-17, 02:43:04,VALID,1008.12,VALID,0,VALID,101.285,VALID,0.105969,VALID,23.1467,VALID,315,VALID,0.225,
2010-07-17, 02:44:04,VALID,1008.08,VALID,0,VALID,101.285,VALID,0.105969,VALID,23.1679,VALID,315,VALID,0.0269531,
2010-07-17, 02:45:04,VALID,1008.09,VALID,0,VALID,101.278,VALID,0.105969,VALID,23.1467,VALID,308,VALID,0.264453,
2010-07-17, 02:46:04,VALID,1008.07,VALID,0,VALID,101.293,VALID,0.105969,VALID,23.1467,VALID,308,VALID,0.105859,
2010-07-17, 02:47:04,VALID,1008.07,VALID,0,VALID,101.278,VALID,0.105969,VALID,23.1467,VALID,300,VALID,0.0328125,
2010-07-17, 02:48:04,VALID,1008.04,VALID,0,VALID,101.278,VALID,0.105969,VALID,23.1662,VALID,300,VALID,0,
2010-07-17, 02:49:04,VALID,1008.06,VALID,0,VALID,101.255,VALID,0,VALID,23.1679,VALID,300,VALID,0,
2010-07-17, 02:50:04,VALID,1008.05,VALID,0,VALID,101.27,VALID,0,VALID,23.1679,VALID,300,VALID,0,
2010-07-17, 02:51:04,VALID,1008.05,VALID,0,VALID,101.262,VALID,0,VALID,23.1485,VALID,300,VALID,0.0464844,
2010-07-17, 02:52:04,VALID,1008.05,VALID,0,VALID,101.293,VALID,0,VALID,23.1485,VALID,300,VALID,0,
2010-07-17, 02:53:04,VALID,1008.06,VALID,0,VALID,101.262,VALID,0,VALID,23.1485,VALID,300,VALID,0,
2010-07-17, 02:54:04,VALID,1008.07,VALID,0,VALID,101.27,VALID,0,VALID,23.1485,VALID,289,VALID,0.264062,
2010-07-17, 02:55:04,VALID,1008.08,VALID,0,VALID,101.278,VALID,0,VALID,23.1485,VALID,233,VALID,0.442578,
2010-07-17, 02:56:04,VALID,1008.08,VALID,0,VALID,101.255,VALID,0,VALID,23.1485,VALID,233,VALID,0.122656,
2010-07-17, 02:57:04,VALID,1008.07,VALID,0,VALID,101.27,VALID,0,VALID,23.129,VALID,233,VALID,0.351953,
2010-07-17, 02:58:04,VALID,1008.09,VALID,0,VALID,101.278,VALID,0,VALID,23.1697,VALID,233,VALID,0,
2010-07-17, 02:59:04,VALID,1008.08,VALID,0,VALID,101.247,VALID,0,VALID,23.1272,VALID,227,VALID,0.430859,
2010-07-17, 03:00:04,VALID,1008.11,VALID,0,VALID,101.262,VALID,0,VALID,23.129,VALID,204,VALID,0.564453,
2010-07-17, 03:01:04,VALID,1008.13,VALID,0,VALID,101.262,VALID,0,VALID,23.1485,VALID,183,VALID,0.623438,
2010-07-17, 03:02:04,VALID,1008.13,VALID,0,VALID,101.24,VALID,0,VALID,23.1697,VALID,171,VALID,0.519141,
2010-07-17, 03:03:04,VALID,1008.15,VALID,0,VALID,101.24,VALID,0,VALID,23.1697,VALID,171,VALID,0.407813,
2010-07-17, 03:04:04,VALID,1008.17,VALID,0,VALID,101.255,VALID,0,VALID,23.1697,VALID,171,VALID,0.241016,
2010-07-17, 03:05:04,VALID,1008.17,VALID,0,VALID,101.262,VALID,0,VALID,23.1485,VALID,171,VALID,0,
2010-07-17, 03:06:04,VALID,1008.15,VALID,0,VALID,101.24,VALID,0,VALID,23.1485,VALID,171,VALID,0,
2010-07-17, 03:07:04,VALID,1008.18,VALID,0,VALID,101.247,VALID,0,VALID,23.1485,VALID,171,VALID,0,
2010-07-17, 03:08:04,VALID,1008.13,VALID,0,VALID,101.255,VALID,0,VALID,23.129,VALID,171,VALID,0,
2010-07-17, 03:09:04,VALID,1008.09,VALID,0,VALID,101.262,VALID,0,VALID,23.129,VALID,171,VALID,0,
2010-07-17, 03:10:04,VALID,1008.09,VALID,0,VALID,101.285,VALID,0.105969,VALID,23.1077,VALID,171,VALID,0,
2010-07-17, 03:11:04,VALID,1008.06,VALID,0,VALID,101.293,VALID,0,VALID,23.1077,VALID,171,VALID,0,
2010-07-17, 03:12:04,VALID,1008.06,VALID,0,VALID,101.27,VALID,0.105969,VALID,23.129,VALID,171,VALID,0.0441406,
2010-07-17, 03:13:04,VALID,1008.08,VALID,0,VALID,101.278,VALID,0,VALID,23.1095,VALID,110,VALID,0,
2010-07-17, 03:14:04,VALID,1008.07,VALID,0,VALID,101.255,VALID,0,VALID,23.1095,VALID,96,VALID,0.326562,
2010-07-17, 03:15:04,VALID,1008.1,VALID,0,VALID,101.255,VALID,0.105969,VALID,23.0688,VALID,79,VALID,0.250391,
2010-07-17, 03:16:04,VALID,1008.11,VALID,0,VALID,101.27,VALID,0,VALID,23.09,VALID,79,VALID,0.632422,
2010-07-17, 03:17:04,VALID,1008.15,VALID,0,VALID,101.247,VALID,0,VALID,23.1095,VALID,79,VALID,0.867969,
2010-07-17, 03:18:04,VALID,1008.15,VALID,0,VALID,101.255,VALID,0,VALID,23.0883,VALID,79,VALID,0.6375,
2010-07-17, 03:19:04,VALID,1008.18,VALID,0,VALID,101.247,VALID,0,VALID,23.129,VALID,68,VALID,0.802344,
2010-07-17, 03:20:04,VALID,1008.18,VALID,0,VALID,101.27,VALID,0,VALID,23.1095,VALID,70,VALID,0.852344,
2010-07-17, 03:21:04,VALID,1008.19,VALID,0,VALID,101.262,VALID,0,VALID,23.09,VALID,48,VALID,0.610156,
2010-07-17, 03:22:04,VALID,1008.19,VALID,0,VALID,101.27,VALID,0,VALID,23.09,VALID,64,VALID,0.425781,
2010-07-17, 03:23:04,VALID,1008.21,VALID,0,VALID,101.255,VALID,0,VALID,23.09,VALID,78,VALID,0.0289063,
2010-07-17, 03:24:04,VALID,1008.19,VALID,0,VALID,101.262,VALID,0,VALID,23.09,VALID,78,VALID,0,
2010-07-17, 03:25:04,VALID,1008.19,VALID,0,VALID,101.232,VALID,0,VALID,23.09,VALID,78,VALID,0,
2010-07-17, 03:26:04,VALID,1008.19,VALID,0,VALID,101.24,VALID,0,VALID,23.1095,VALID,78,VALID,0,
2010-07-17, 03:27:04,VALID,1008.17,VALID,0,VALID,101.217,VALID,0,VALID,23.09,VALID,78,VALID,0,
2010-07-17, 03:28:04,VALID,1008.17,VALID,0,VALID,101.232,VALID,0,VALID,23.09,VALID,78,VALID,0,
2010-07-17, 03:29:04,VALID,1008.19,VALID,0,VALID,101.224,VALID,0.105969,VALID,23.1095,VALID,81,VALID,0,
2010-07-17, 03:30:04,VALID,1008.19,VALID,0,VALID,101.224,VALID,0,VALID,23.1307,VALID,84,VALID,0,
2010-07-17, 03:31:04,VALID,1008.21,VALID,0,VALID,101.217,VALID,0,VALID,23.1095,VALID,84,VALID,0,
2010-07-17, 03:32:04,VALID,1008.2,VALID,0,VALID,101.262,VALID,0,VALID,23.0705,VALID,71,VALID,0.846094,
2010-07-17, 03:33:04,VALID,1008.2,VALID,0,VALID,101.24,VALID,0,VALID,23.09,VALID,67,VALID,0.698828,
2010-07-17, 03:34:04,VALID,1008.22,VALID,0,VALID,101.247,VALID,0,VALID,23.0705,VALID,40,VALID,1.19648,
2010-07-17, 03:35:04,VALID,1008.23,VALID,0,VALID,101.209,VALID,0,VALID,23.09,VALID,102,VALID,0.542188,
2010-07-17, 03:36:04,VALID,1008.28,VALID,0,VALID,101.201,VALID,0,VALID,23.129,VALID,116,VALID,1.25625,
2010-07-17, 03:37:04,VALID,1008.26,VALID,0,VALID,101.24,VALID,0,VALID,23.1095,VALID,87,VALID,0.959375,
2010-07-17, 03:38:04,VALID,1008.26,VALID,0,VALID,101.232,VALID,0,VALID,23.09,VALID,64,VALID,0.621875,
2010-07-17, 03:39:04,VALID,1008.27,VALID,0,VALID,101.217,VALID,0,VALID,23.1095,VALID,56,VALID,0.676172,
2010-07-17, 03:40:04,VALID,1008.25,VALID,0,VALID,101.217,VALID,0,VALID,23.09,VALID,76,VALID,0.212891,
2010-07-17, 03:41:04,VALID,1008.24,VALID,0,VALID,101.224,VALID,0,VALID,23.1095,VALID,76,VALID,0.455469,
2010-07-17, 03:42:04,VALID,1008.26,VALID,0,VALID,101.24,VALID,0,VALID,23.09,VALID,71,VALID,0.663672,
2010-07-17, 03:43:04,VALID,1008.23,VALID,0,VALID,101.247,VALID,0,VALID,23.0705,VALID,73,VALID,0.396484,
2010-07-17, 03:44:04,VALID,1008.27,VALID,0,VALID,101.24,VALID,0,VALID,23.0511,VALID,80,VALID,1.00898,
2010-07-17, 03:45:04,VALID,1008.26,VALID,0,VALID,101.27,VALID,0,VALID,23.0316,VALID,78,VALID,0.933203,
2010-07-17, 03:46:04,VALID,1008.29,VALID,0,VALID,101.262,VALID,0,VALID,23.0316,VALID,86,VALID,0.775781,
2010-07-17, 03:47:04,VALID,1008.31,VALID,0,VALID,101.247,VALID,0,VALID,23.0511,VALID,80,VALID,0.35625,
2010-07-17, 03:48:04,VALID,1008.35,VALID,0,VALID,101.224,VALID,0,VALID,23.0511,VALID,93,VALID,0.641016,